Regional Weather Roundup
Issued by NWS

Home | Current Version | Previous Version | Text Only | Print | Product List | Glossary Off
Versions: 1 2 3 4 5 6 7 8 9 10 11 12 13 14 15 16 17 18 19 20 21 22 23 24 25 26 27 28 29 30 31 32 33 34 35 36 37 38 39 40 41 42 43 44 45 46 47 48 49 50

000
ASUS43 KLMK 282302
RWRKY
KENTUCKY REGIONAL WEATHER ROUNDUP
NATIONAL WEATHER SERVICE LOUISVILLE KY
600 PM EST SUN DEC 28 2014

NOTE "FAIR" INDICATES FEW OR NO CLOUDS BELOW 12,000 FEET
WITH NO SIGNIFICANT WEATHER AND/OR OBSTRUCTIONS TO VISIBILITY.

KYZ001>023-026-027-061>063-070>075-290000-
WESTERN AND SOUTH CENTRAL KENTUCKY

CITY           SKY/WX    TMP DP  RH WIND       PRES   REMARKS
PADUCAH        CLOUDY    36  29  75 NE6       30.20R WCI  31
HENDERSON      CLOUDY    34  27  75 N5        30.21R WCI  30
OWENSBORO      CLOUDY    35  30  82 N6        30.22R WCI  30
HOPKINSVILLE   CLOUDY    36  32  86 N8        30.19S WCI  29
BOWLING GREEN  CLOUDY    37  32  82 N5        30.19R WCI  33
GLASGOW        NOT AVBL
$$

KYZ024-025-028>034-038-045-046-053-290000-
NORTH CENTRAL KENTUCKY

CITY           SKY/WX    TMP DP  RH WIND       PRES   REMARKS
LOUISVILLE/SDF CLOUDY    36  30  79 NE7       30.19S WCI  30
LOUISVILLE/LOU CLOUDY    36  29  75 N3        30.19S
FORT KNOX      CLOUDY    35  31  86 NW5       30.17S WCI  30
$$

KYZ035>037-039>044-047>052-055>060-089>105-290000-
NORTHEAST KENTUCKY

CITY           SKY/WX    TMP DP  RH WIND       PRES   REMARKS
LEXINGTON      FOG       35  34  96 N8        30.17R VSB 1/4 WCI  29
COVINGTON      CLOUDY    36  27  69 N6        30.16R WCI  31
FRANKFORT      CLOUDY    35  32  88 NW5       30.17R WCI  31
$$

KYZ054-064>069-076>088-106>120-290000-
SOUTHEAST KENTUCKY

CITY           SKY/WX    TMP DP  RH WIND       PRES   REMARKS
JACKSON        LGT RAIN  40  38  93 NW6       30.11R
LONDON         LGT RAIN  43  38  82 NW3       30.12R
SOMERSET       NOT AVBL
MIDDLESBORO    NOT AVBL
MONTICELLO     CLOUDY    42  41  97 NW6       30.17R
$$



USA.gov is the U.S. government's official web portal to all federal, state and local government web resources and services.